Weather History for Sheridan, WY

Change the Weather History Date:

Wednesday, June 26, 2013

  Actual Average Record
Temperature  
Mean Temperature 70 °F 65 °F  
Max Temperature 84 °F 81 °F 105 °F (1988)
Min Temperature 55 °F 49 °F 37 °F (2000)
Degree Days  
Heating Degree Days 0 3  
Month to date heating degree days 120 139  
Since 1 June heating degree days 120 139  
Since 1 July heating degree days 7551 7633  
Cooling Degree Days 5 3  
Month to date cooling degree days 23 35  
Year to date cooling degree days 31 39  
Since 1 June cooling degree days 23 35  
Growing Degree Days 20 (Base 50)    
Moisture  
Dew Point 52 °F    
Average Humidity 59    
Maximum Humidity 84    
Minimum Humidity 34    
Precipitation  
Precipitation 0.00 in 0.05 in 0.78 in (2005)
Month to date precipitation 2.19 1.92  
Year to date precipitation 9.51 7.95  
Sea Level Pressure  
Sea Level Pressure 29.91 in    
Wind  
Wind Speed 3 mph (West)    
Max Wind Speed 10 mph    
Max Gust Speed 14 mph    
Visibility 10 miles    
Events      
T = Trace of Precipitation, MM = Missing Value Source: NWS Daily Summary

Daily Weather History Graph

Daily Weather History Graph

Search for Another Location

Airport:

Trip Planner

Search our weather history database for the weather conditions in past years. The results will help you decide how hot, cold, wet, or windy it might be!

Date:

Astronomy

Jun. 26, 2013 Rise Set
Actual Time 5:23 AM MDT 8:57 PM MDT
Civil Twilight 4:46 AM MDT 9:34 PM MDT
Nautical Twilight 3:57 AM MDT 10:23 PM MDT
Astronomical Twilight 2:53 AM MDT 11:28 PM MDT
Moon 11:10 PM MDT (6/26) 9:29 AM MDT (6/26)
Length of Visible Light 16h 48m
Length of Day
15h 34m
Waning Gibbous, 85% of the Moon is Illuminated
Jun 26
Waning Gibbous
Jun 29
Last Quarter
Jul 8
New
Jul 15
First Quarter
Jul 22
Full

Hourly Weather History & Observations

Time (MDT) Temp. Heat Index Dew Point Humidity Pressure Visibility Wind Dir Wind Speed Gust Speed Precip Events Conditions
12:53 AM 57.9 °F - 50.0 °F 75% 29.80 in 10.0 mi South 4.6 mph - N/A   Clear
1:53 AM 55.0 °F - 50.0 °F 83% 29.82 in 10.0 mi Calm Calm - N/A   Clear
2:53 AM 57.0 °F - 46.9 °F 69% 29.80 in 10.0 mi SW 8.1 mph - N/A   Clear
3:53 AM 55.9 °F - 46.0 °F 69% 29.82 in 10.0 mi Variable 3.5 mph - N/A   Clear
4:53 AM 55.0 °F - 48.9 °F 80% 29.84 in 10.0 mi SW 3.5 mph - N/A   Clear
5:53 AM 57.0 °F - 50.0 °F 77% 29.86 in 10.0 mi Calm Calm - N/A   Scattered Clouds
6:53 AM 61.0 °F - 52.0 °F 72% 29.90 in 10.0 mi Calm Calm - N/A   Mostly Cloudy
7:53 AM 66.9 °F - 51.1 °F 57% 29.91 in 10.0 mi WNW 6.9 mph - N/A   Partly Cloudy
8:53 AM 72.0 °F - 51.1 °F 48% 29.92 in 10.0 mi NNE 3.5 mph - N/A   Partly Cloudy
9:53 AM 73.9 °F - 50.0 °F 43% 29.94 in 10.0 mi NNW 4.6 mph - N/A   Mostly Cloudy
10:53 AM 75.0 °F - 48.9 °F 40% 29.94 in 10.0 mi Calm Calm - N/A   Partly Cloudy
11:53 AM 77.0 °F - 50.0 °F 39% 29.93 in 10.0 mi Calm Calm - N/A   Partly Cloudy
12:53 PM 78.1 °F - 50.0 °F 37% 29.93 in 10.0 mi SE 3.5 mph - N/A   Partly Cloudy
1:53 PM 78.1 °F - 52.0 °F 40% 29.92 in 10.0 mi Calm Calm - N/A   Partly Cloudy
2:53 PM 79.0 °F - 53.1 °F 40% 29.91 in 10.0 mi SSE 4.6 mph - N/A   Scattered Clouds
3:53 PM 79.0 °F - 52.0 °F 39% 29.90 in 10.0 mi Variable 3.5 mph - N/A   Clear
4:53 PM 82.9 °F - 52.0 °F 34% 29.90 in 10.0 mi Calm Calm - N/A   Clear
5:53 PM 82.0 °F 81.3 °F 54.0 °F 38% 29.90 in 10.0 mi NNW 5.8 mph - N/A   Partly Cloudy
6:53 PM 79.0 °F - 55.9 °F 45% 29.91 in 10.0 mi WNW 6.9 mph - N/A   Partly Cloudy
7:53 PM 75.9 °F - 57.9 °F 54% 29.91 in 10.0 mi WNW 6.9 mph - N/A   Clear
8:53 PM 70.0 °F - 57.0 °F 63% 29.94 in 10.0 mi WNW 10.4 mph - N/A   Clear
9:53 PM 68.0 °F - 55.0 °F 63% 29.98 in 10.0 mi WNW 4.6 mph - N/A   Clear
10:53 PM 61.0 °F - 55.0 °F 81% 30.02 in 10.0 mi South 4.6 mph - N/A   Clear
11:53 PM 61.0 °F - 54.0 °F 78% 30.04 in 10.0 mi Calm Calm - N/A   Clear